Find Starlink 33808

NORAD ID: 63767 Int'l Des: 2025-089 Owner: SPXS Country: US Constellation: starlink operational
LEOCIRCULAR

リアルタイム位置

3D地球を読み込み中...

Starlink 33808について

説明を読み込み中...

次回通過

Passes for default location (London). Set your location on the main map for personalized predictions.

高度履歴

Loading altitude history...

軌道要素

1 63767U 25089S 26127.90431723 .00016634 00000-0 61265-3 0 9993
2 63767 43.0025 70.8221 0001523 273.5038 86.5640 15.27579477 58011
Epoch: May 7, 2026 • Age: 10 hours

現在のステータス

高度 487.1 km
速度 7.63 km/s
衛星直下点 42.93°N, 172.8°E
打ち上げ日 Apr 29, 2025
運用期間 1 years
タイプ internet

技術仕様

分類 Payload
質量 575.00 kg
乾燥質量 530.00 kg
総質量 575.00 kg
長さ 0.30 m
直径 4.10 m
スパン 29.00 m
形状 Box + pan
製造者 SPXS
バスタイプ Starlink V2MO
フェーズステータス In Orbit
所有者/国 SPXS/US

Most Searched